Location: Haliburton Scout Reserve
(45.0900°N, 78.3200°W)
Time: 15:03:58
(UTC-04:00)

Courier 1B Rocket - Pass Details

Date: 08 February 2023
Orbit: 920 x 1202 km, 28.2° (Epoch: 27 March)

Event Time Altitude Azimuth Distance (km) Brightness Sun altitude
Rises 14:36:25 0° 219° (SW) 3,736 9.5 23.3°
Reaches altitude 10° 14:40:46 10° 194° (SSW) 2,724 8.8 22.8°
Maximum altitude 14:43:40 13° 167° (SSE) 2,454 7.9 22.5°
Drops below altitude 10° 14:46:32 10° 140° (SE) 2,658 7.5 22.2°
Sets 14:50:39 0° 115° (ESE) 3,569 7.8 21.8°
